DW4212 La Cabrera ES current weather conditions

sailwx.info

Wind from 187

Air temperature 22.8° C
Dewpoint 13.8° C

Last reported at 2015-Jul-03 06:49 UTC.
Time now 2015-Jul-03 07:55 UTC

Location: N 40°53' W 003°35'.
View on Google Maps.

See reports from other nearby stations

  
Tides and Currents Weather Stations Pressure Air Temp Water Temp Dewpoint Dewpoint Depression Visibility Wind Speed Wind Dir Waves Ship Positions
date/time (UTC)wind fromknots sea level pressurealtimeterstation pressurevisibilityair tempwater tempwave heightnotes
2015-Jul-03 06:49 187 22.8
2015-Jul-03 06:39 188 0 gusting 4 22.2
2015-Jul-03 06:29 188 22.2
2015-Jul-03 06:19 184 21.7
2015-Jul-03 06:09 240 20.6
2015-Jul-03 05:59 240 20.0
2015-Jul-03 05:49 240 20.0
2015-Jul-03 05:39 240 19.4
2015-Jul-03 05:29 240 19.4
2015-Jul-03 05:19 240 18.9
2015-Jul-03 05:09 240 18.9
2015-Jul-03 04:59 240 19.4
2015-Jul-03 04:49 240 19.4
2015-Jul-03 04:39 240 19.4
2015-Jul-03 04:29 240 19.4
2015-Jul-03 04:19 240 19.4
2015-Jul-03 04:09 240 19.4
2015-Jul-03 03:59 240 20.0
2015-Jul-03 03:49 240 20.0
2015-Jul-03 03:39 240 20.0
2015-Jul-03 03:29 241 20.0
2015-Jul-03 03:19 241 20.0
2015-Jul-03 03:09 181 20.6
2015-Jul-03 02:49 181 0 gusting 3 20.6
2015-Jul-03 02:39 170 20.6
2015-Jul-03 02:29 167 21.1
2015-Jul-03 02:19 161 21.1
2015-Jul-03 02:09 161 21.1
2015-Jul-03 01:59 193 21.1
2015-Jul-03 01:49 190 0 gusting 4 21.7
2015-Jul-03 01:39 226 0 gusting 6 21.7
2015-Jul-03 01:29 207 21.7
2015-Jul-03 01:19 188 21.7
2015-Jul-03 01:09 225 21.7
2015-Jul-03 00:59 209 21.7
2015-Jul-03 00:49 209 21.7
2015-Jul-03 00:39 209 21.1
2015-Jul-03 00:29 209 21.1
2015-Jul-03 00:19 209 20.6
2015-Jul-03 00:09 209 20.6
2015-Jul-02 23:59 209 20.6
2015-Jul-02 23:49 209 21.1
2015-Jul-02 23:39 209 21.1
2015-Jul-02 23:29 209 21.7
2015-Jul-02 23:19 209 22.2
2015-Jul-02 23:09 209 22.8
2015-Jul-02 22:59 209 22.8
2015-Jul-02 22:49 209 22.8
2015-Jul-02 22:39 209 23.3
2015-Jul-02 22:29 209 23.3
2015-Jul-02 22:19 209 23.3
2015-Jul-02 22:09 209 23.3
2015-Jul-02 21:59 209 23.3
2015-Jul-02 21:49 209 23.9
2015-Jul-02 21:39 209 23.9
2015-Jul-02 21:29 209 23.9
2015-Jul-02 21:19 209 24.4
2015-Jul-02 21:09 209 24.4
2015-Jul-02 20:59 209 25.0
2015-Jul-02 20:49 209 25.0
2015-Jul-02 20:39 209 25.6
2015-Jul-02 20:29 209 26.1
2015-Jul-02 20:19 209 26.7
2015-Jul-02 20:09 209 26.7
2015-Jul-02 19:59 209 27.2
2015-Jul-02 19:49 209 27.8
2015-Jul-02 19:39 209 28.3
2015-Jul-02 19:29 209 28.3
2015-Jul-02 19:19 209 28.3
2015-Jul-02 19:09 209 28.9
2015-Jul-02 18:59 209 28.9
2015-Jul-02 18:49 209 29.4
2015-Jul-02 18:39 232 29.4
2015-Jul-02 18:29 226 30.0
2015-Jul-02 18:19 194 0 gusting 5 30.0
2015-Jul-02 18:09 198 0 gusting 5 30.6
2015-Jul-02 17:59 255 0 gusting 6 30.6
2015-Jul-02 17:49 205 0 gusting 6 30.6
2015-Jul-02 17:39 265 1 gusting 6 31.1
2015-Jul-02 17:29 252 31.1
2015-Jul-02 17:19 261 0 gusting 6 30.6
2015-Jul-02 17:09 233 31.1
2015-Jul-02 16:59 254 1 gusting 6 30.6
2015-Jul-02 16:49 180 0 gusting 6 30.6
2015-Jul-02 16:39 249 2 gusting 7 30.0
2015-Jul-02 16:29 182 1 gusting 6 30.0
2015-Jul-02 16:19 204 0 gusting 6 30.0
2015-Jul-02 16:09 200 1 gusting 8 30.6
2015-Jul-02 15:59 201 2 gusting 8 30.6
2015-Jul-02 15:49 237 1 gusting 8 30.6
2015-Jul-02 15:39 246 0 gusting 6 30.6
2015-Jul-02 15:29 181 0 gusting 8 30.0
2015-Jul-02 15:19 195 0 gusting 10 30.6
2015-Jul-02 15:09 194 0 gusting 6 31.1
2015-Jul-02 14:59 202 1 gusting 6 30.6
2015-Jul-02 14:49 173 1 gusting 10 30.0
2015-Jul-02 14:39 202 3 gusting 8 30.0
2015-Jul-02 14:29 215 1 gusting 9 30.6
2015-Jul-02 14:19 186 0 gusting 6 31.1
2015-Jul-02 14:09 256 3 gusting 8 31.1
2015-Jul-02 13:59 202 1 gusting 6 30.0
2015-Jul-02 13:49 175 2 gusting 8 30.0
2015-Jul-02 13:29 205 3 gusting 9 30.6
2015-Jul-02 13:19 171 1 gusting 10 30.0
2015-Jul-02 13:09 183 1 gusting 7 30.0
2015-Jul-02 12:59 182 3 gusting 7 30.6
2015-Jul-02 12:49 238 0 gusting 7 30.6
2015-Jul-02 12:39 255 1 gusting 10 29.4
2015-Jul-02 12:29 205 1 gusting 6 30.0
2015-Jul-02 11:39 196 1 gusting 7 29.4
2015-Jul-02 11:29 205 2 gusting 6 29.4
2015-Jul-02 11:19 245 0 gusting 7 28.9
2015-Jul-02 11:09 230 0 gusting 9 28.9
2015-Jul-02 10:59 200 1 gusting 7 28.3
2015-Jul-02 10:49 202 0 gusting 8 27.8
2015-Jul-02 10:39 201 4 gusting 9 27.8
2015-Jul-02 10:29 104 0 gusting 6 26.7
2015-Jul-02 10:09 165 27.2
2015-Jul-02 09:59 194 0 gusting 6 27.2
2015-Jul-02 09:49 232 27.8
2015-Jul-02 09:39 215 0 gusting 6 27.2
2015-Jul-02 09:29 225 0 gusting 4 26.7
2015-Jul-02 09:19 210 26.1
2015-Jul-02 09:09 184 0 gusting 6 25.6
2015-Jul-02 08:59 188 25.6
2015-Jul-02 08:49 182 25.0
2015-Jul-02 08:39 182 24.4
2015-Jul-02 08:29 180 0 gusting 3 24.4
2015-Jul-02 08:19 182 23.9
2015-Jul-02 08:09 180 0 gusting 4 23.3
2015-Jul-02 07:59 094 0 gusting 3 22.8
2015-Jul-02 07:49 165 22.2
2015-Jul-02 07:39 172 22.2
2015-Jul-02 07:29 172 22.8
2015-Jul-02 07:19 117 22.2
2015-Jul-02 07:09 090 22.2
2015-Jul-02 06:59 083 21.7
2015-Jul-02 06:39 051 20.6
2015-Jul-02 06:29 051 18.9
2015-Jul-02 06:19 051 18.3
2015-Jul-02 06:09 051 18.3
2015-Jul-02 05:59 113 18.3
2015-Jul-02 05:40 113 17.2
2015-Jul-02 05:29 113 17.2
2015-Jul-02 05:19 113 17.2
2015-Jul-02 05:09 113 17.2
2015-Jul-02 04:59 113 17.8
2015-Jul-02 04:49 113 17.8
2015-Jul-02 04:39 113 18.3
2015-Jul-02 04:29 113 18.3
2015-Jul-02 04:19 113 18.3
2015-Jul-02 04:09 113 18.3
2015-Jul-02 03:59 113 18.9
2015-Jul-02 03:49 113 18.9
2015-Jul-02 03:39 113 18.9
2015-Jul-02 03:29 113 19.4
2015-Jul-02 03:19 113 19.4
2015-Jul-02 03:09 113 19.4
2015-Jul-02 02:59 113 19.4
2015-Jul-02 02:49 113 19.4
2015-Jul-02 02:39 113 19.4
2015-Jul-02 02:29 113 20.0
2015-Jul-02 02:19 113 20.0
2015-Jul-02 02:09 113 20.0
2015-Jul-02 01:59 113 20.6
2015-Jul-02 01:49 113 20.6
2015-Jul-02 01:39 113 20.6
2015-Jul-02 01:29 113 21.1
2015-Jul-02 01:19 113 21.1
2015-Jul-02 01:09 113 21.7
2015-Jul-02 00:59 113 21.7
2015-Jul-02 00:49 113 21.7
2015-Jul-02 00:39 113 21.7
2015-Jul-02 00:29 113 22.2
2015-Jul-02 00:19 113 22.2
2015-Jul-02 00:09 113 22.8
2015-Jul-01 23:59 113 22.8
2015-Jul-01 23:49 113 23.3
2015-Jul-01 23:39 113 23.3
2015-Jul-01 23:29 111 23.9
2015-Jul-01 23:19 111 23.9
2015-Jul-01 23:09 111 24.4
2015-Jul-01 22:59 050 24.4
2015-Jul-01 22:49 050 25.0
2015-Jul-01 22:39 050 25.0
2015-Jul-01 22:29 051 25.6
2015-Jul-01 22:19 077 25.6
2015-Jul-01 22:09 077 25.6
2015-Jul-01 21:59 077 24.4
2015-Jul-01 21:49 077 24.4
2015-Jul-01 21:39 077 24.4
2015-Jul-01 21:29 077 24.4
2015-Jul-01 21:19 077 24.4
2015-Jul-01 21:09 077 24.4
2015-Jul-01 20:59 078 24.4
2015-Jul-01 20:49 263 26.1
2015-Jul-01 20:39 263 26.7
2015-Jul-01 20:29 263 27.2
2015-Jul-01 20:19 263 27.8
2015-Jul-01 20:09 263 28.3
2015-Jul-01 19:59 263 28.3
2015-Jul-01 19:49 263 28.9
2015-Jul-01 19:39 263 28.9
2015-Jul-01 19:29 263 29.4
2015-Jul-01 19:19 263 30.0
2015-Jul-01 19:09 263 30.6
2015-Jul-01 18:59 263 0 gusting 3 30.6
2015-Jul-01 18:49 263 31.1
2015-Jul-01 18:39 263 31.7
2015-Jul-01 18:29 259 0 gusting 6 32.2
2015-Jul-01 18:19 252 31.7
2015-Jul-01 18:09 224 31.7
2015-Jul-01 17:59 259 31.7
2015-Jul-01 17:49 190 0 gusting 3 31.7
2015-Jul-01 17:39 188 0 gusting 4 31.7
2015-Jul-01 17:29 211 31.1
2015-Jul-01 17:19 189 2 gusting 8 31.1
2015-Jul-01 17:09 184 31.1
2015-Jul-01 16:59 184 0 gusting 6 31.7
2015-Jul-01 16:49 196 0 gusting 9 31.7
2015-Jul-01 16:39 179 2 gusting 9 31.1
2015-Jul-01 16:29 207 31.1
2015-Jul-01 16:19 207 0 gusting 6 31.7
2015-Jul-01 16:09 193 1 gusting 7 32.2
2015-Jul-01 15:59 215 0 gusting 6 32.8
2015-Jul-01 15:49 254 32.8
2015-Jul-01 15:39 243 0 gusting 7 32.8
2015-Jul-01 15:29 169 2 gusting 6 33.3
2015-Jul-01 15:19 254 0 gusting 6 33.3
2015-Jul-01 15:09 228 0 gusting 10 32.8
2015-Jul-01 14:59 203 0 gusting 6 33.3
2015-Jul-01 14:49 194 1 gusting 9 32.8
2015-Jul-01 14:39 277 2 gusting 8 32.8
2015-Jul-01 14:29 193 1 gusting 10 32.8
2015-Jul-01 14:19 199 0 gusting 6 32.8
2015-Jul-01 14:09 237 3 gusting 9 32.2
2015-Jul-01 13:59 241 1 gusting 8 31.7
2015-Jul-01 13:49 221 1 gusting 7 32.2
2015-Jul-01 13:39 178 2 gusting 9 32.2
2015-Jul-01 13:29 191 0 gusting 12 32.2
2015-Jul-01 13:19 207 1 gusting 9 32.2
2015-Jul-01 13:09 240 1 gusting 13 31.7
2015-Jul-01 12:59 188 2 gusting 11 31.7
2015-Jul-01 12:49 194 1 gusting 8 32.2
2015-Jul-01 12:39 151 5 gusting 13 31.1
2015-Jul-01 12:29 160 4 gusting 11 31.7
2015-Jul-01 12:19 191 1 gusting 14 31.1
2015-Jul-01 12:09 196 3 gusting 13 31.1
2015-Jul-01 11:59 124 1 gusting 9 31.1
2015-Jul-01 11:49 197 1 gusting 8 31.1
2015-Jul-01 11:39 189 4 gusting 9 30.6
2015-Jul-01 11:29 182 4 gusting 12 30.6
2015-Jul-01 11:19 213 3 gusting 10 31.1
2015-Jul-01 10:59 170 2 gusting 13 29.4
2015-Jul-01 10:49 197 4 gusting 9 29.4
2015-Jul-01 10:39 194 5 gusting 10 29.4
2015-Jul-01 10:29 196 3 gusting 12 28.9
2015-Jul-01 10:19 209 2 gusting 8 28.3
2015-Jul-01 10:09 163 1 gusting 7 28.3
2015-Jul-01 09:59 159 2 gusting 6 28.3
2015-Jul-01 09:49 173 2 gusting 7 27.8
2015-Jul-01 09:39 174 1 gusting 6 27.8
2015-Jul-01 09:29 184 0 gusting 6 27.8
2015-Jul-01 09:19 175 0 gusting 5 27.2
2015-Jul-01 09:09 178 2 gusting 5 27.2
2015-Jul-01 08:59 196 0 gusting 5 26.7
2015-Jul-01 08:49 183 26.7
2015-Jul-01 08:39 166 26.1
2015-Jul-01 08:29 166 26.1
2015-Jul-01 08:19 167 26.1
2015-Jul-01 08:09 184 25.6
2015-Jul-01 07:59 189 25.6
2015-Jul-01 07:49 189 0 gusting 5 25.0
2015-Jul-01 07:39 217 25.0
2015-Jul-01 07:29 227 0 gusting 3 24.4
2015-Jul-01 07:19 248 23.9
2015-Jul-01 07:09 248 22.8